Location: ????????
(54.9045°N, 39.1041°E)
Time: 11:09:54
(UTC+00:00)

Cosmos 1980 - Pass Details

Date: 14 April 2024
Orbit: 840 x 845 km, 71.0° (Epoch: 22 May)

Event Time Altitude Azimuth Distance (km) Brightness Sun altitude
Exits shadow 01:30:58 - 219° (SW) 2,720 5.8 -7.6°
Reaches altitude 10° 01:31:40 10° 220° (SW) 2,458 5.5 -7.5°
Maximum altitude 01:37:19 75° 306° (NW) 878 3.8 -6.8°
Drops below altitude 10° 01:42:59 10° 32° (NNE) 2,470 7.2 -6.1°
Sets 01:45:27 0° 34° (NE) 3,408 8.0 -5.8°
